Home > Weather > Olsztyn > Past weeks

Flag for Poland Past Weather in Olsztyn, Poland — Yesterday and Last 2 Weeks

Now
72 °F

Mild.


Feels Like: 73 °F
Forecast: 61 / 81 °F
Wind: 2 mph from Northwest

Location: Ketrzyn

Current Time: Jul 24, 2016 at 12:50:59 PM

Latest Report: Jul 24, 2016 at 12:00 PM


Visibility: 8 mi

Pressure: 30.14 "Hg

Humidity: 77%

Dew Point: 64 °F

Location of OlsztynLocation

Past Weather in Olsztyn — Graph

°F

Olsztyn Temperature Yesterday

Maximum temperature yesterday: 74 °F (at 4:00 PM)
Minimum temperature yesterday: 61 °F (at 11:00 PM)
Average temperature yesterday: 67 °F

High & Low Weather Summary for the Past Weeks

 TemperatureHumidityPressure
High83 °F (Jul 11, 2:00 PM)99% (Jul 20, 6:00 AM)30.17 "Hg (Jul 20, 6:00 AM)
Low52 °F (Jul 19, 12:00 AM)44% (Jul 19, 4:00 PM)29.53 "Hg (Jul 15, 1:00 AM)
Average64 °F81%29.95 "Hg
* Reported Jul 9 11:00 AM — Jul 24 11:00 AM, Olsztyn, Weather by CustomWeather, © 2016

Note: Actual official high and low records may vary slightly from our data, if they occured in-between our weather recording intervals... More about our weather records

Advertising

Olsztyn Weather History for the Previous 24 Hours

Scroll right to see more
 ConditionsComfort  
Time TempWeatherWind HumidityBarometerVisibility
11:00 AM
Sun, Jul 24
70 °FMild.2 mph81%30.13 "Hg6 mi
10:00 AM69 °FFog.3 mph85%30.14 "Hg6 mi
9:00 AM66 °FFog.2 mph90%30.13 "Hg4 mi
8:00 AM65 °FFog.3 mph96%30.14 "Hg4 mi
7:00 AM62 °FFog.2 mph99%30.13 "Hg3 mi
6:00 AM60 °FCool.2 mph99%30.14 "Hg1 mi
5:00 AM59 °FDuststorm.3 mph99%30.14 "Hg1 mi
4:00 AM57 °FDuststorm.2 mph99%30.13 "Hg0 mi
3:00 AM56 °FDuststorm.No wind97%30.13 "Hg0 mi
2:00 AM57 °FDuststorm.1 mph97%30.14 "Hg0 mi
1:00 AM58 °FFog.No wind97%30.13 "Hg1 mi
12:00 AM58 °FFog.1 mph95%30.13 "Hg1 mi
11:00 PM
Sat, Jul 23
61 °FFog.1 mph91%30.12 "Hg4 mi
10:00 PM64 °FMild.3 mph85%30.12 "Hg6 mi
9:00 PM66 °FMild.3 mph80%30.10 "Hg7 mi
8:00 PM69 °FMild.3 mph74%30.09 "Hg7 mi
7:00 PM73 °FMild.2 mph67%30.08 "Hg10 mi
6:00 PM73 °FMild.2 mph66%30.08 "Hg12 mi
5:00 PM74 °FMild.2 mph68%30.08 "Hg10 mi
4:00 PM74 °FMild.2 mph63%30.09 "Hg10 mi
3:00 PM74 °FMild.2 mph63%30.08 "Hg11 mi
2:00 PM74 °FMild.3 mph64%30.09 "Hg11 mi
1:00 PM72 °FMild.2 mph72%30.09 "Hg9 mi
12:00 PM69 °FMild.3 mph82%30.09 "Hg9 mi
Weather by CustomWeather, © 2016

See weather overviewHow to use our weather pages